Volver al catálogo

SL-8 DEB

ActivoLEO
NORAD 21958·DEBRIS·🇷🇺 Russia

Lanzado Feb 12, 1991 desde Plesetsk Cosmodrome

Loading…

Próximos Pases (próximas 24 horas)

TLE

ActualizadoSource: Space-Track

Época: Sep 14, 2026, 00:56 UTC

1 21958U 91009CG  26257.03922360 -.00000055  00000-0 -40039-3 0  9992
2 21958  73.9613 104.8937 0133717  28.3165 124.2960 12.16812543577595

Sigue SL-8 DEB en tiempo real con AllMySat

Download on the App Store